Weather History for Tampa, FL

Change the Weather History Date:

Monday, April 8, 2013

  Actual Average Record
Temperature  
Mean Temperature 76 °F 70 °F  
Max Temperature 85 °F 80 °F 89 °F (1947)
Min Temperature 67 °F 62 °F 40 °F (1971)
Degree Days  
Heating Degree Days 0 1  
Month to date heating degree days 0 8  
Since 1 July heating degree days 400 535  
Cooling Degree Days 11 6  
Month to date cooling degree days 54 45  
Year to date cooling degree days 313 284  
Growing Degree Days 25 (Base 50)    
Moisture  
Dew Point 58 °F    
Average Humidity 56    
Maximum Humidity 78    
Minimum Humidity 34    
Precipitation  
Precipitation 0.00 in 0.07 in 2.26 in (1940)
Month to date precipitation 1.14 0.60  
Year to date precipitation 4.76 8.67  
Sea Level Pressure  
Sea Level Pressure 30.10 in    
Wind  
Wind Speed 5 mph (ESE)    
Max Wind Speed 13 mph    
Max Gust Speed 25 mph    
Visibility 10 miles    
Events      
T = Trace of Precipitation, MM = Missing Value Source: NWS Daily Summary

Daily Weather History Graph

Daily Weather History Graph

Search for Another Location

Airport:

Trip Planner

Search our weather history database for the weather conditions in past years. The results will help you decide how hot, cold, wet, or windy it might be!

Date:

Astronomy

Apr. 08, 2013 Rise Set
Actual Time 7:12 AM EDT 7:51 PM EDT
Civil Twilight 6:48 AM EDT 8:15 PM EDT
Nautical Twilight 6:20 AM EDT 8:43 PM EDT
Astronomical Twilight 5:52 AM EDT 9:12 PM EDT
Moon 5:54 AM EDT (4/8) 6:29 PM EDT (4/8)
Length of Visible Light 13h 26m
Length of Day
12h 39m
Waning Crescent, 3% of the Moon is Illuminated
Apr 8
Waning Crescent
Apr 10
New
Apr 18
First Quarter
Apr 25
Full
May 2
Last Quarter

Hourly Weather History & Observations

Time (EDT) Temp. Heat Index Dew Point Humidity Pressure Visibility Wind Dir Wind Speed Gust Speed Precip Events Conditions
12:53 AM 71.1 °F - 59.0 °F 66% 30.12 in 10.0 mi ESE 5.8 mph - N/A   Mostly Cloudy
1:53 AM 69.1 °F - 59.0 °F 70% 30.11 in 10.0 mi ESE 6.9 mph - N/A   Partly Cloudy
2:53 AM 69.1 °F - 59.0 °F 70% 30.09 in 10.0 mi East 5.8 mph - N/A   Mostly Cloudy
3:53 AM 68.0 °F - 60.1 °F 76% 30.08 in 10.0 mi ESE 4.6 mph - N/A   Mostly Cloudy
4:53 AM 68.0 °F - 60.1 °F 76% 30.07 in 10.0 mi ESE 4.6 mph - N/A   Scattered Clouds
5:53 AM 68.0 °F - 60.1 °F 76% 30.08 in 10.0 mi East 3.5 mph - N/A   Partly Cloudy
6:53 AM 66.9 °F - 59.0 °F 76% 30.10 in 10.0 mi East 3.5 mph - N/A   Scattered Clouds
7:53 AM 68.0 °F - 59.0 °F 73% 30.12 in 10.0 mi Calm Calm - N/A   Partly Cloudy
8:53 AM 71.1 °F - 59.0 °F 66% 30.13 in 10.0 mi ESE 6.9 mph - N/A   Partly Cloudy
9:53 AM 73.9 °F - 59.0 °F 59% 30.14 in 10.0 mi ESE 6.9 mph - N/A   Partly Cloudy
10:53 AM 78.1 °F - 55.9 °F 46% 30.15 in 10.0 mi Variable 6.9 mph - N/A   Partly Cloudy
11:53 AM 80.1 °F 80.1 °F 55.0 °F 42% 30.15 in 10.0 mi Variable 4.6 mph - N/A   Scattered Clouds
12:53 PM 81.0 °F 80.4 °F 53.1 °F 38% 30.14 in 10.0 mi Variable 5.8 mph - N/A   Scattered Clouds
1:53 PM 82.9 °F 81.8 °F 53.1 °F 36% 30.11 in 10.0 mi Variable 5.8 mph - N/A   Scattered Clouds
2:53 PM 84.9 °F 83.2 °F 53.1 °F 33% 30.09 in 10.0 mi ESE 5.8 mph - N/A   Mostly Cloudy
3:53 PM 82.9 °F 82.1 °F 55.9 °F 39% 30.06 in 10.0 mi Variable 4.6 mph - N/A   Scattered Clouds
4:53 PM 84.0 °F 82.9 °F 55.0 °F 37% 30.06 in 10.0 mi Calm Calm - N/A   Scattered Clouds
5:53 PM 82.9 °F 81.9 °F 54.0 °F 37% 30.06 in 10.0 mi West 6.9 mph - N/A   Scattered Clouds
6:53 PM 80.1 °F 80.6 °F 57.9 °F 47% 30.07 in 10.0 mi WNW 9.2 mph - N/A   Mostly Cloudy
7:53 PM 75.9 °F - 59.0 °F 56% 30.08 in 10.0 mi WNW 6.9 mph - N/A   Mostly Cloudy
8:53 PM 73.0 °F - 61.0 °F 66% 30.10 in 10.0 mi NW 3.5 mph - N/A   Scattered Clouds
9:53 PM 72.0 °F - 62.1 °F 71% 30.12 in 10.0 mi NNW 3.5 mph - N/A   Partly Cloudy
10:53 PM 71.1 °F - 63.0 °F 75% 30.13 in 10.0 mi Calm Calm - N/A   Partly Cloudy
11:53 PM 73.0 °F - 61.0 °F 66% 30.14 in 10.0 mi SE 8.1 mph - N/A   Scattered Clouds